Theta_e
290 291 291 292 290 289 289 289 289 290 291 292 290 287 288 291 288 288 291 296 293 290 291 294 295 296 294 294 294 295 296 297 297 297 297 297 298 298 298 299 299 300 301 303 306 308 310 313 313 313 315 316 317 316 317 318 318 318 320 321 320 320 320 320 320 321 321 322 322 322 322 322 322 322 321 321 321 320 320 320 321 321 322 322 321 320 320
290 291 291 291 290 288 289 289 289 291 292 291 291 291 293 294 293 294 293 291 288 290 291 292 293 295 294 294 295 295 295 295 295 295 295 295 296 297 297 298 298 299 299 301 302 303 304 306 308 308 309 309 311 313 315 317 317 319 319 318 318 318 319 319 319 320 322 323 322 322 321 321 320 322 322 323 323 322 320 319 319 320 320 320 320 321 320
288 291 292 291 290 290 288 289 289 290 291 292 292 292 290 293 293 292 291 289 286 290 292 292 294 294 294 294 293 293 294 294 294 294 294 294 295 295 296 297 297 297 298 298 299 299 300 302 303 304 305 306 306 307 309 311 312 314 316 316 318 318 317 317 318 318 319 318 319 319 319 318 318 319 318 317 319 321 319 318 320 318 318 318 319 321 320
286 289 289 290 289 290 288 286 287 287 288 287 289 288 289 290 290 292 291 289 286 289 293 293 293 293 292 290 291 291 292 293 293 293 293 293 294 295 295 296 296 296 296 297 297 297 298 299 301 301 301 302 303 304 305 306 307 309 309 308 308 310 315 318 318 318 318 317 316 317 317 317 318 319 321 320 320 319 319 317 315 316 316 316 318 319 319
285 288 289 289 290 289 286 283 285 286 289 290 290 290 291 289 289 289 289 288 289 291 292 290 289 290 291 291 291 291 292 293 293 292 293 293 294 294 295 295 295 295 295 296 297 297 297 298 298 300 301 300 300 302 302 303 303 303 303 305 304 304 305 307 311 312 312 312 312 314 316 317 318 318 318 317 317 317 316 316 316 315 316 317 318 319 321
286 287 287 289 287 281 280 286 289 289 287 288 288 287 288 289 291 289 290 288 290 290 290 289 287 288 289 290 292 294 293 292 292 292 293 293 294 294 294 295 294 295 295 296 296 298 298 299 300 300 300 300 300 302 302 301 300 301 301 301 301 301 301 302 304 305 306 305 305 305 305 306 307 308 309 309 310 312 312 312 311 314 315 315 316 317 319
285 287 288 285 280 280 285 291 290 291 291 290 288 288 289 289 289 289 288 288 287 287 288 287 286 287 289 291 291 292 294 293 292 291 292 292 293 293 294 294 294 294 295 296 295 296 296 297 298 299 299 299 300 298 299 298 299 299 299 299 300 300 300 300 301 302 302 302 301 302 302 302 303 303 304 304 305 305 306 307 308 309 310 311 311 312 313
288 286 285 278 279 285 289 290 290 291 292 290 289 287 289 289 289 289 287 287 287 288 288 288 289 289 290 291 291 291 293 294 293 292 291 292 293 292 293 293 294 294 295 295 295 295 297 297 296 297 298 299 297 297 298 298 298 299 299 299 299 300 299 299 299 300 301 301 301 301 301 302 302 302 302 303 303 305 305 305 306 307 306 307 307 307 309
283 284 284 282 286 285 286 286 286 286 283 285 284 283 286 290 290 290 287 287 288 288 289 290 291 292 291 288 288 292 293 293 294 293 293 293 293 294 294 294 294 295 296 296 296 297 297 297 296 296 297 297 297 296 296 296 297 297 297 297 297 298 298 299 299 299 299 299 300 301 301 301 301 301 301 300 300 302 303 303 302 303 303 303 303 304 305
286 285 282 283 282 280 282 287 290 291 290 288 288 286 285 289 291 291 289 287 288 288 290 290 291 293 289 284 285 290 293 294 293 294 294 295 295 295 295 295 296 296 296 296 297 296 295 296 297 297 297 297 296 296 295 296 295 295 295 295 296 297 298 298 298 298 298 298 298 299 299 299 300 301 302 301 300 302 303 303 303 303 304 303 302 302 302
285 284 282 279 279 280 285 286 289 290 291 289 290 287 285 289 290 290 290 288 289 289 290 291 292 291 285 283 285 290 292 293 293 293 293 294 294 295 295 295 295 295 296 295 295 296 296 294 296 297 297 296 296 295 295 295 295 294 294 295 295 295 296 297 298 299 299 298 297 296 296 297 298 298 299 300 300 300 302 301 300 301 301 302 301 301 302
281 281 280 278 281 280 285 287 289 291 291 291 288 282 282 289 291 292 291 290 289 291 292 292 292 289 284 284 287 292 293 294 294 294 293 293 294 294 295 295 296 296 296 295 294 294 294 294 296 296 296 296 295 294 294 294 294 293 293 294 295 296 296 297 297 297 298 298 298 297 296 297 297 296 297 297 298 298 298 299 299 300 301 300 300 299 300
282 282 280 282 283 287 288 288 289 291 292 290 284 280 285 291 293 293 292 292 293 293 293 293 288 290 292 291 292 293 294 293 294 295 295 295 295 294 295 295 295 295 295 294 293 293 294 295 296 296 296 295 294 295 295 294 293 293 294 295 295 295 295 295 295 296 297 298 297 298 298 297 297 297 296 296 297 297 297 297 298 297 297 298 299 298 298
280 280 282 281 283 286 288 290 290 292 289 284 284 288 291 291 292 293 294 293 294 295 293 292 292 291 292 293 293 293 293 293 294 294 294 295 295 296 296 295 295 295 294 294 294 295 294 294 295 295 295 294 294 295 294 293 293 294 295 295 295 295 295 295 295 295 295 296 297 297 298 298 297 296 296 296 296 296 296 296 296 296 296 296 296 296 297
280 280 281 279 277 284 290 289 291 291 286 285 288 290 292 293 294 293 294 294 294 293 291 292 292 292 292 292 292 293 293 293 293 293 293 293 293 293 293 294 295 295 294 293 293 294 294 294 294 294 295 294 294 294 293 293 295 295 295 295 295 295 295 296 296 296 296 296 296 297 297 297 297 296 297 297 297 297 297 297 296 295 295 295 295 295 296
279 278 277 277 283 286 290 289 284 286 287 290 290 290 290 293 294 293 294 293 294 293 292 291 291 292 292 292 292 293 293 293 293 293 294 294 293 293 293 293 293 294 293 293 293 293 294 294 294 294 294 292 292 292 292 294 295 295 295 295 295 295 295 295 295 296 296 296 297 297 297 297 297 297 297 297 297 297 297 297 297 297 296 296 295 294 294
282 281 283 286 288 288 290 290 290 290 291 293 294 293 293 292 293 295 293 292 293 294 293 292 291 290 291 292 292 291 291 292 292 292 292 292 292 293 292 292 293 293 292 292 292 293 293 294 294 294 295 293 293 292 293 295 295 295 295 295 295 295 295 295 295 295 296 296 296 296 297 297 296 296 296 297 296 296 297 297 296 296 296 296 296 296 295
288 289 289 290 289 288 289 291 291 291 292 294 294 293 291 291 293 294 292 293 292 293 293 290 290 290 290 291 292 292 292 291 291 292 292 292 293 294 294 293 293 293 293 292 292 292 293 294 294 294 294 294 292 293 295 296 296 296 296 296 295 295 295 295 294 295 295 295 295 296 296 296 296 295 295 295 295 296 296 296 296 295 294 294 294 295 294
284 281 289 287 287 289 290 290 291 292 293 293 294 292 292 292 293 293 293 292 292 292 292 291 289 289 290 291 292 293 293 293 293 293 293 293 294 293 293 293 293 293 293 292 292 292 291 292 293 293 294 294 294 294 294 294 295 296 295 295 294 295 294 294 294 295 294 294 294 295 295 295 295 295 295 295 295 294 294 294 294 293 293 293 293 293 293
284 283 287 288 290 291 291 291 290 290 291 292 293 294 294 293 293 293 292 293 292 293 292 292 290 290 291 291 291 292 292 293 293 293 293 294 294 295 295 295 296 295 295 294 294 294 293 293 293 293 293 293 294 294 294 294 294 295 294 294 294 294 294 294 294 294 294 289 292 294 295 295 294 294 294 295 294 293 293 293 293 293 293 293 293 293 293
285 287 288 289 291 290 291 292 292 292 292 292 292 292 292 291 290 291 292 293 292 292 292 292 292 290 290 291 292 292 292 292 292 293 293 294 294 294 294 295 295 295 295 294 295 294 294 295 296 295 295 295 295 296 296 296 296 296 295 293 294 294 294 294 293 293 294 294 294 294 295 295 295 295 294 295 294 295 296 296 295 294 294 294 294 294 294
282 284 286 289 285 284 288 290 292 293 293 293 292 293 292 293 292 292 291 291 293 293 293 293 293 291 290 290 292 292 293 293 293 294 294 294 294 294 295 295 295 294 294 294 294 293 293 294 295 295 295 296 296 296 297 297 297 296 296 296 295 295 295 294 294 294 295 295 294 294 295 295 295 296 289 289 292 295 295 291 289 288 289 293 294 295 294
283 287 288 289 291 290 290 290 291 293 294 295 293 292 292 293 293 293 291 290 291 292 292 293 293 292 291 290 290 291 292 292 293 294 294 294 294 294 295 295 295 295 295 295 294 293 293 293 294 294 294 294 295 296 296 296 296 296 296 295 295 294 294 294 292 294 295 295 295 295 295 295 296 295 296 296 289 288 289 289 289 288 288 288 288 288 292
289 289 290 291 292 290 290 290 292 292 294 295 293 293 294 294 293 293 292 292 291 290 290 290 291 291 291 291 292 291 292 292 293 293 293 294 295 295 295 295 295 295 295 295 296 295 295 295 295 296 295 295 295 295 295 295 295 296 295 295 294 293 294 294 293 292 295 295 295 295 295 295 295 295 295 295 296 290 289 289 289 288 288 288 288 288 288
289 291 291 290 291 292 292 292 291 292 293 293 293 293 293 293 293 293 292 291 290 290 289 289 289 290 291 290 292 293 292 292 293 293 293 293 293 294 294 294 295 295 295 295 295 295 295 296 296 296 296 296 296 296 297 296 296 296 296 295 294 294 294 294 294 294 294 295 295 295 294 294 295 295 294 293 293 294 294 290 289 289 289 288 288 288 288
293 292 292 292 293 292 292 292 292 292 292 293 293 293 293 293 292 293 292 291 290 290 290 289 289 289 290 291 291 291 292 291 290 291 293 293 293 293 294 294 295 295 295 295 294 294 295 296 296 296 296 296 296 297 297 297 296 296 296 296 295 294 294 294 295 295 294 294 294 294 294 294 294 294 294 294 293 293 293 294 295 292 289 288 287 288 288
292 293 293 291 290 291 293 292 290 291 291 292 293 292 292 292 291 291 292 292 292 292 292 292 291 290 290 289 289 290 292 291 291 292 292 293 293 294 294 295 294 294 294 294 294 293 292 296 296 296 296 296 296 297 297 296 297 296 296 296 295 289 285 289 295 295 295 294 294 294 294 294 294 293 294 293 293 292 292 292 292 292 294 295 290 288 290
292 291 292 290 289 290 292 292 292 290 290 290 291 291 290 290 291 291 291 290 290 290 290 290 291 292 291 290 291 291 291 292 292 292 293 293 294 294 294 293 293 292 294 294 294 293 293 296 296 296 296 296 296 297 297 297 297 296 296 296 295 295 295 293 295 295 295 295 294 294 294 294 294 294 293 293 292 292 292 292 292 293 293 294 294 290 287
291 290 291 291 293 293 292 291 292 292 290 289 289 290 290 291 290 291 291 291 290 290 289 289 290 291 293 291 292 293 292 292 292 292 293 294 293 293 292 292 292 291 293 294 295 294 294 295 296 296 296 296 296 296 298 298 298 297 296 296 296 295 295 295 295 295 295 294 294 293 289 291 294 294 293 293 292 293 292 292 291 292 293 293 294 295 292
290 290 291 291 291 292 293 292 291 291 290 289 289 289 290 291 291 290 290 289 290 290 290 290 291 290 291 292 292 293 292 292 293 293 292 292 292 292 291 290 291 292 293 293 294 293 294 295 296 296 296 297 296 297 298 298 298 297 297 297 296 295 295 295 295 295 295 295 293 288 292 293 294 294 293 293 293 292 292 290 290 290 293 292 290 291 291
288 290 291 291 292 292 292 290 289 289 289 288 289 289 289 290 291 290 290 289 289 290 290 291 291 290 291 292 292 290 290 290 289 289 290 291 291 289 289 292 292 291 292 292 293 293 293 293 295 296 297 296 296 297 298 298 298 297 297 297 296 287 284 286 289 295 295 294 292 293 293 293 293 293 290 291 291 292 292 291 291 290 291 292 291 290 290
290 290 290 290 290 290 289 289 290 289 288 288 288 289 290 290 290 291 290 289 290 291 291 290 290 291 291 290 289 289 287 285 286 287 289 289 287 283 276 279 290 288 292 292 292 292 293 293 294 295 295 295 296 297 298 298 298 297 296 293 295 295 290 287 292 292 293 292 293 293 291 292 293 293 292 291 290 291 291 290 290 290 291 290 290 290 290
290 289 289 289 288 289 289 289 290 290 289 288 289 290 290 290 290 290 291 290 290 289 290 291 292 292 290 287 286 284 280 281 284 284 285 284 282 280 277 279 284 288 290 292 292 292 292 292 294 295 294 295 295 296 298 298 298 297 297 296 296 294 290 289 289 294 292 292 292 292 292 292 293 293 292 290 291 290 291 290 289 290 289 290 290 290 289
290 289 289 291 291 289 289 290 290 290 290 290 289 289 289 289 289 290 289 288 290 290 290 291 292 289 286 283 279 277 278 283 287 287 283 280 279 278 277 282 286 288 290 290 290 291 292 293 294 294 294 294 294 295 297 298 298 297 297 296 295 294 294 293 293 294 293 291 292 292 292 293 293 292 291 291 291 291 290 289 289 289 290 290 290 290 288
290 290 289 290 291 292 292 291 292 290 290 289 288 288 289 290 289 289 289 289 289 291 292 290 287 283 281 279 278 278 280 284 286 284 281 278 278 275 277 283 286 288 289 290 291 291 293 293 294 293 293 294 294 294 297 298 298 297 296 295 294 294 294 294 293 293 293 293 293 292 292 292 292 289 289 291 292 290 291 289 290 289 290 289 290 292 290
290 290 290 290 290 290 291 291 291 291 290 290 289 287 289 289 289 289 288 289 291 291 290 287 284 283 282 280 280 278 279 282 281 280 278 275 273 274 278 283 286 287 288 289 291 292 293 293 286 285 292 294 294 294 296 297 297 297 296 295 294 293 293 292 293 293 292 293 292 292 292 290 291 290 291 292 293 292 292 291 290 290 290 289 290 291 290
290 290 290 290 290 290 290 290 290 290 290 290 290 289 289 289 290 291 291 291 290 290 290 288 288 287 285 283 283 281 280 282 284 282 280 274 274 277 281 285 284 285 287 286 289 292 292 292 286 281 287 292 292 294 295 286 297 296 295 295 295 294 293 293 293 293 292 292 292 292 290 291 292 292 291 293 292 291 291 291 290 290 289 290 289 290 290
290 291 292 291 290 291 292 291 290 290 290 290 289 289 290 291 290 290 290 290 290 290 289 289 290 289 288 285 283 281 281 279 276 275 273 272 276 280 281 282 285 286 286 287 289 291 292 288 281 286 293 293 293 294 291 283 288 295 296 295 295 294 293 293 292 291 292 293 291 293 292 291 292 293 294 293 293 292 291 290 290 291 291 290 291 290 290
291 291 291 290 290 291 291 291 290 291 292 292 292 292 290 290 290 289 289 290 290 289 289 289 288 288 288 288 288 287 285 283 279 276 276 277 278 280 284 287 287 288 288 289 290 291 291 289 291 292 292 293 294 294 289 282 285 296 296 296 296 295 294 293 292 291 291 293 292 292 293 292 293 292 292 292 292 292 289 290 290 291 291 291 292 291 291
291 291 291 291 292 292 292 292 292 292 292 291 292 293 292 290 290 290 290 290 289 288 290 289 288 289 289 289 289 290 290 289 286 283 281 280 279 280 283 287 288 289 288 284 287 289 288 283 288 292 292 293 294 294 291 287 287 294 296 295 295 294 294 293 294 293 292 293 291 289 292 291 292 292 291 291 292 292 292 292 292 291 292 292 292 292 292
291 291 291 291 292 292 292 292 292 292 292 292 291 291 291 291 291 290 291 291 290 289 289 289 289 289 291 291 291 291 290 289 288 287 286 284 284 285 287 289 292 291 289 288 289 288 286 286 290 292 293 293 294 290 293 286 292 296 296 295 295 294 294 293 293 293 292 292 291 292 292 292 292 292 291 292 292 292 292 292 292 292 293 292 292 292 292
291 290 291 292 291 292 292 292 291 292 293 293 292 291 291 290 291 292 292 291 290 289 289 289 286 290 291 290 289 288 289 289 288 288 287 287 289 289 288 290 293 291 285 284 284 285 288 288 289 287 292 293 292 285 285 291 294 296 295 295 295 294 294 293 293 293 293 293 292 293 292 292 292 291 291 292 292 292 292 292 292 292 292 292 292 292 292
290 290 290 291 291 291 291 292 292 292 292 293 293 293 292 291 291 290 290 290 290 290 289 290 288 285 286 288 289 289 290 290 289 288 288 288 289 290 290 292 292 290 282 287 289 290 290 291 291 292 288 288 291 282 281 290 292 292 293 293 293 294 293 293 293 293 293 293 293 292 292 292 291 292 291 291 291 291 291 292 292 292 292 292 292 292 291
290 290 290 291 291 291 290 291 291 291 291 293 294 293 293 293 292 291 291 290 290 290 290 291 290 290 289 289 289 289 291 291 290 290 289 291 291 290 289 290 291 288 282 287 289 291 291 291 292 290 283 282 282 281 287 290 290 290 291 291 292 293 294 293 293 293 293 293 292 293 292 290 291 292 292 290 290 290 290 291 292 292 292 292 292 292 291
291 291 291 291 290 290 291 291 292 292 292 292 292 293 293 293 293 292 291 291 291 290 289 290 290 290 291 290 290 292 292 292 292 291 290 290 290 291 293 286 288 288 287 284 289 290 291 292 288 283 283 281 281 281 288 289 290 290 291 291 292 292 293 293 293 293 293 293 292 292 291 292 292 292 292 290 288 290 290 291 291 292 291 291 292 291 291
292 291 290 287 292 293 292 291 291 290 290 291 292 293 293 293 293 293 292 292 292 292 292 292 292 292 292 292 292 291 290 290 290 291 292 293 292 293 292 287 290 287 284 282 289 290 291 285 283 282 281 281 281 284 287 288 289 290 290 290 291 291 292 293 293 293 293 293 292 292 292 292 292 293 292 292 291 290 290 289 289 291 292 292 292 291 290
292 292 292 292 292 292 290 290 289 290 290 291 291 293 294 293 293 293 293 291 291 292 291 291 291 292 292 292 293 292 292 293 293 292 291 292 291 289 287 284 284 283 283 288 290 291 291 288 283 281 280 280 281 288 289 289 290 290 290 291 291 292 292 293 293 293 293 293 292 291 289 291 293 293 292 290 290 289 289 289 290 291 290 290 289 289 288
291 292 293 292 292 291 290 290 291 292 292 292 293 292 292 292 292 293 293 293 293 293 294 294 293 293 293 292 292 292 293 292 290 293 293 292 292 291 290 291 289 284 283 284 284 284 282 281 281 280 280 280 285 289 290 290 290 290 291 291 292 292 292 292 293 293 293 292 292 292 292 292 292 292 291 291 290 291 291 290 290 290 290 290 290 290 289
291 291 291 290 290 290 291 291 291 291 293 292 291 292 292 291 292 293 293 294 293 294 295 295 294 294 294 292 292 293 292 291 292 292 294 291 291 291 290 286 283 281 284 289 290 290 283 280 280 280 280 281 289 290 290 290 289 289 291 291 291 291 291 292 291 293 293 293 292 292 293 292 293 293 292 291 291 291 290 290 290 290 290 290 289 289 289
291 291 292 293 292 292 292 292 293 292 292 291 291 292 291 291 292 294 293 293 293 291 293 294 294 294 294 294 293 293 292 291 291 291 292 291 290 290 289 289 289 285 284 289 290 290 283 280 280 280 283 287 289 289 289 289 290 289 290 290 289 290 290 289 287 288 292 292 292 292 292 292 293 291 291 291 291 290 291 290 290 289 286 288 289 289 289
293 292 292 291 291 291 290 290 291 291 291 291 291 290 290 291 292 293 292 292 292 291 293 294 294 295 295 294 294 293 292 292 291 288 291 291 290 287 286 287 288 286 287 286 288 289 289 288 288 285 285 287 288 288 288 289 289 289 287 289 289 290 289 288 289 290 291 291 292 292 292 292 292 292 291 291 290 290 290 290 290 290 289 289 289 288 288
291 291 291 290 290 291 290 290 290 290 290 289 290 290 290 291 291 292 292 286 291 293 292 292 293 295 294 294 293 294 294 293 293 293 288 288 289 290 288 284 288 287 287 288 289 290 289 288 284 283 284 287 287 288 285 284 287 288 289 288 287 289 289 290 290 290 290 290 290 291 290 292 292 291 290 291 290 290 290 290 290 290 290 290 290 289 289
Wind_Speed
5 4 6 7 9 8 7 8 8 10 9 9 5 4 3 6 1 1 9 10 8 4 6 6 7 7 9 9 9 9 8 8 8 10 11 12 11 11 13 12 10 12 11 11 12 11 9 9 11 9 7 8 9 9 8 8 8 9 8 8 7 7 7 6 4 4 6 7 7 8 9 10 9 8 8 8 7 6 4 3 2 3 2 2 5 4 3
6 6 6 5 9 6 9 10 10 8 10 10 9 9 7 6 4 6 11 10 9 5 5 6 7 7 8 9 8 9 10 10 9 11 12 12 12 12 12 11 11 10 11 11 11 11 12 12 11 10 9 9 9 9 9 10 10 9 9 9 9 9 9 8 8 6 7 7 7 7 8 8 8 8 7 6 6 5 4 3 4 2 3 1 2 3 3
3 5 3 5 6 6 11 11 11 10 7 8 9 6 8 7 10 10 11 10 6 4 6 7 8 8 7 10 12 11 10 10 10 12 11 11 12 11 11 11 11 11 11 12 12 13 12 12 11 10 10 9 10 11 10 10 10 9 10 10 10 10 9 9 6 6 7 6 6 7 6 7 6 7 7 6 4 4 3 3 4 4 2 2 2 2 2
1 2 5 3 4 8 10 12 14 13 10 7 7 4 4 3 5 8 8 5 3 3 7 7 9 10 12 12 11 10 9 10 11 12 12 11 11 12 12 12 12 13 13 12 13 13 12 12 11 9 10 10 11 10 10 11 10 11 12 10 10 9 8 9 9 8 6 7 7 7 6 7 5 6 4 3 3 3 3 3 3 5 4 3 3 3 2
2 1 3 4 1 1 1 6 8 9 4 4 1 2 7 4 4 3 3 3 4 5 5 8 9 10 11 12 10 9 11 11 12 12 12 12 12 12 12 13 13 13 12 11 11 10 11 11 11 10 8 11 10 8 9 8 9 11 11 10 10 10 9 9 9 8 7 8 8 8 9 9 8 6 5 5 5 6 5 4 4 8 7 6 5 4 3
2 2 3 2 1 5 1 2 6 6 6 6 3 4 5 7 3 3 4 6 7 6 6 8 9 10 9 10 11 10 7 8 11 12 11 12 12 11 12 12 13 12 10 9 11 12 12 11 9 9 10 11 10 9 9 9 12 11 12 11 11 10 10 9 8 8 8 9 9 8 8 8 7 7 7 7 7 5 2 4 7 8 7 7 6 6 6
2 1 1 1 3 2 2 2 6 4 4 6 7 5 5 6 8 11 11 9 8 8 7 7 7 10 11 12 12 11 11 11 10 11 11 11 11 11 10 13 13 12 10 9 11 12 12 12 10 10 12 11 10 12 10 12 11 12 12 13 12 11 11 10 9 9 9 10 9 8 8 8 9 9 8 7 7 5 5 7 7 8 6 7 6 7 7
2 2 1 3 2 1 2 3 5 4 2 5 3 3 6 6 5 8 9 8 9 10 11 9 7 9 13 15 14 11 11 11 10 11 10 11 11 10 9 12 13 13 12 12 11 11 8 9 12 12 10 7 11 12 11 11 12 12 12 13 11 11 11 11 11 9 8 8 9 8 8 9 10 10 9 9 7 5 7 8 7 7 7 7 7 8 8
2 2 3 4 4 4 3 1 5 6 4 6 3 2 3 3 2 5 10 10 11 11 10 11 10 7 9 14 11 10 11 11 11 11 11 11 12 10 10 12 13 11 10 9 8 9 9 10 12 12 9 8 11 12 13 11 12 11 11 12 11 11 11 11 10 9 8 8 8 8 8 10 10 9 8 8 8 6 7 8 7 8 7 7 6 7 8
1 4 4 3 2 1 3 1 1 1 4 5 5 3 0 1 4 7 10 12 12 13 11 9 9 5 12 9 6 7 8 9 11 12 11 11 10 9 8 9 11 10 9 9 9 9 10 11 10 8 8 10 11 13 13 11 12 12 12 12 10 11 11 10 10 9 9 8 9 9 9 10 8 7 7 6 6 3 5 7 8 7 5 6 7 7 8
1 1 3 2 1 3 1 9 8 6 4 7 4 3 2 2 6 7 9 11 10 11 10 9 3 2 6 5 4 5 7 9 10 11 9 9 8 8 8 9 10 10 10 11 10 10 11 12 10 10 8 9 12 13 11 11 11 12 12 11 11 10 10 9 9 9 9 9 10 9 10 9 8 8 8 6 5 4 4 5 6 4 4 5 6 6 6
3 2 3 3 2 3 5 9 9 9 6 3 3 1 3 2 7 8 8 10 10 9 8 5 2 2 10 8 6 6 7 7 8 9 10 8 7 7 7 8 9 10 9 10 11 12 12 10 8 9 10 11 12 11 10 10 12 11 10 9 9 9 9 9 8 8 8 9 9 9 8 8 7 6 5 5 6 5 5 4 4 4 4 4 5 4 4
3 4 4 3 3 2 6 9 12 9 4 3 3 1 2 2 6 8 7 9 8 7 5 2 1 5 5 9 11 8 9 11 9 7 7 7 6 8 8 8 8 8 9 10 10 10 8 8 8 7 8 10 11 9 9 11 11 9 8 8 9 9 9 9 9 9 8 9 9 8 7 6 6 6 5 5 4 5 5 4 5 5 5 4 5 5 5
3 2 3 3 4 2 8 10 9 5 2 2 1 4 4 4 4 6 8 10 8 4 2 3 8 11 12 13 11 10 9 10 9 8 8 7 7 7 8 8 8 8 8 10 10 10 9 9 8 7 8 11 10 10 11 12 9 7 7 7 7 8 8 8 8 8 8 7 7 6 6 6 6 6 5 6 5 5 4 4 5 5 5 5 4 4 4
1 2 3 1 3 2 10 16 3 7 2 3 4 7 5 1 4 5 6 6 4 6 8 10 12 14 14 13 11 11 9 8 8 7 7 7 7 7 7 8 7 7 8 9 10 9 8 8 7 7 10 12 10 10 12 9 6 6 6 6 7 7 7 8 7 7 7 7 6 5 5 5 5 5 4 5 5 4 4 4 4 4 4 3 3 3 3
2 4 4 3 2 6 9 7 4 5 2 6 6 5 2 4 3 5 4 4 5 7 10 11 11 13 14 11 11 9 8 7 7 6 6 6 6 8 8 8 7 8 9 8 8 8 7 7 7 7 8 9 8 10 9 5 6 6 6 6 6 6 6 6 6 6 6 7 6 6 5 5 5 6 5 4 5 5 4 4 4 4 3 3 3 3 3
3 3 2 2 2 4 6 4 3 3 4 4 3 3 4 4 5 4 6 7 7 8 9 9 9 9 8 11 9 10 9 8 7 7 7 7 8 8 8 7 7 8 9 9 8 9 7 8 7 7 7 9 9 10 6 5 6 6 5 5 6 6 6 6 6 6 6 6 6 6 5 6 6 5 5 5 4 5 4 4 4 4 4 4 5 5 5
5 7 4 1 4 5 6 6 4 5 5 6 6 6 7 7 6 6 7 7 9 8 6 9 7 7 8 9 9 9 9 8 6 6 7 6 6 8 9 8 8 8 8 8 8 9 9 8 7 7 6 6 9 7 5 5 5 5 6 6 6 6 6 5 6 6 7 8 8 7 7 6 6 6 5 5 5 4 4 4 4 4 5 5 5 5 5
2 4 6 7 6 5 6 6 8 8 8 8 7 9 9 9 9 9 9 9 10 10 9 8 8 7 7 8 7 8 9 9 9 8 8 7 7 8 8 7 7 7 7 8 8 8 7 4 4 5 6 5 5 4 4 3 4 4 5 5 5 5 5 5 5 5 6 5 5 5 5 5 5 5 5 5 4 4 4 4 4 4 4 4 4 4 4
3 4 3 4 4 7 7 5 6 9 10 11 10 9 9 9 10 10 9 9 10 8 8 6 7 7 6 8 7 7 7 7 7 7 8 8 7 6 6 6 7 7 8 9 8 8 7 4 3 4 4 4 4 4 3 2 3 4 4 4 4 4 5 5 5 5 5 3 4 5 4 5 6 5 5 5 4 4 4 3 3 2 2 3 3 4 4
4 3 3 4 9 10 9 8 7 6 7 10 11 12 12 13 14 12 10 9 8 7 6 6 7 7 5 4 7 8 7 6 6 6 6 6 7 6 7 5 6 7 7 8 7 8 6 4 4 4 4 4 3 4 3 2 3 4 4 4 4 4 4 4 4 3 3 3 3 3 3 4 6 5 4 4 5 5 5 4 3 3 3 2 3 3 4
2 2 4 4 2 5 5 5 5 6 6 10 10 11 12 12 11 9 10 8 6 5 5 5 5 5 3 3 4 7 6 6 6 6 6 6 6 6 5 5 6 5 5 6 6 5 4 3 3 4 4 3 3 2 2 2 3 4 4 4 5 4 4 4 4 3 3 3 2 2 2 3 3 4 5 2 2 4 5 5 3 2 3 2 4 4 4
4 2 2 0 3 7 4 3 2 3 2 4 7 7 8 8 10 11 11 8 5 4 3 3 4 4 4 4 3 4 3 3 2 3 6 7 6 5 5 7 6 6 4 4 5 5 3 2 3 3 3 2 3 3 2 2 2 4 4 4 4 4 4 5 4 4 5 5 5 4 4 4 4 4 3 4 5 3 3 5 7 7 5 4 4 4 4
4 1 4 2 3 5 4 1 1 3 2 3 5 4 6 8 7 7 8 9 10 5 3 2 1 4 5 3 3 5 3 2 4 3 2 3 5 5 4 5 6 5 4 4 4 3 2 2 3 3 4 4 3 2 2 3 3 4 5 5 5 5 5 5 4 4 5 5 5 5 5 5 5 5 5 5 4 5 2 5 7 6 5 5 5 5 5
5 2 1 1 5 6 3 3 2 3 3 3 4 4 4 5 4 4 8 5 5 8 7 4 2 1 4 3 1 4 4 3 1 2 3 4 5 5 5 5 6 5 4 3 2 1 1 2 3 3 4 3 3 3 2 3 3 4 4 5 5 4 4 4 4 4 4 5 4 5 5 5 5 5 5 5 5 5 2 4 2 3 2 3 4 5 5
4 5 5 4 5 5 3 5 5 4 4 3 3 4 4 3 4 6 6 8 5 4 7 6 5 1 2 2 2 2 4 4 2 2 2 3 4 4 6 6 4 2 2 2 1 2 3 4 5 4 4 3 1 0 1 1 1 2 2 3 3 3 3 3 4 4 3 3 4 4 4 4 4 4 5 4 4 3 4 5 2 4 6 5 6 7 5
5 3 6 8 6 3 2 1 3 1 2 3 4 5 4 5 5 5 5 5 5 3 4 4 5 4 3 2 3 3 2 3 3 3 2 2 3 3 3 3 3 4 3 2 1 1 2 5 5 5 4 3 1 2 2 3 3 3 2 2 3 3 2 3 3 2 2 2 3 3 4 3 4 4 4 3 2 3 4 4 4 5 5 4 6 5 5
2 3 3 1 4 5 4 3 4 3 3 3 3 5 5 4 5 6 7 6 5 4 4 3 4 6 4 1 2 3 2 2 3 3 3 3 4 3 3 3 3 4 3 2 3 2 3 4 5 5 4 2 1 1 2 2 3 3 2 2 2 2 2 1 2 2 2 2 2 3 3 3 3 3 3 3 3 3 2 3 4 4 4 4 3 2 3
2 3 2 1 2 5 4 3 3 4 4 4 4 3 4 5 4 4 5 4 5 5 4 3 1 1 3 3 2 4 2 3 3 3 4 4 4 3 2 2 1 1 2 3 3 3 3 4 5 5 4 2 2 2 2 1 1 2 2 2 1 2 2 2 2 2 2 2 2 2 2 2 3 3 3 3 3 2 3 3 4 4 4 5 5 4 2
2 1 2 3 4 4 5 3 2 2 3 3 4 3 1 2 4 3 4 4 4 5 4 3 3 2 2 4 3 4 4 3 2 1 1 1 2 2 1 1 1 2 1 1 1 1 2 5 6 5 4 3 3 2 2 1 2 2 2 2 1 1 1 1 1 1 2 2 2 2 1 2 3 3 3 3 3 2 2 2 3 3 4 5 7 6 7
2 2 3 3 4 5 4 2 2 2 2 2 3 4 2 1 1 2 3 3 3 3 3 2 2 2 2 2 2 1 2 1 1 1 1 0 0 1 1 1 2 2 1 0 1 1 1 2 2 3 3 3 2 2 2 2 2 3 2 2 2 4 3 3 0 1 2 2 2 2 3 3 4 4 4 3 2 3 3 3 3 3 4 6 7 7 7
4 3 4 3 2 3 3 2 2 2 2 2 4 5 6 6 6 5 5 5 5 4 4 3 3 4 2 2 2 2 1 0 0 1 2 1 1 1 1 0 1 1 1 1 1 2 2 2 4 2 1 2 2 3 3 2 2 2 2 1 1 2 2 2 2 2 2 2 1 2 3 4 4 4 4 3 3 3 3 3 4 3 4 6 7 6 6
2 2 1 2 3 3 2 2 3 4 5 6 5 3 2 2 2 2 3 3 4 4 4 5 4 2 2 1 2 3 3 2 1 0 1 2 4 3 2 1 2 2 2 2 2 2 3 4 4 1 2 3 4 3 2 2 2 2 2 1 2 2 2 2 1 1 2 2 2 3 3 4 3 4 4 3 4 2 2 2 2 3 3 5 5 5 6
1 2 1 3 3 2 1 1 3 3 3 2 2 3 4 4 4 3 3 4 5 4 5 6 3 2 2 3 3 4 4 2 1 2 4 4 4 3 2 3 2 2 3 3 3 3 4 5 5 4 4 4 4 3 2 3 2 2 2 2 2 2 2 2 1 1 2 3 2 1 2 3 4 3 4 4 4 3 2 2 3 3 3 3 3 4 5
3 3 2 2 1 2 2 2 2 3 3 4 4 4 4 4 4 4 3 5 7 8 5 2 3 4 4 4 4 3 4 4 4 3 4 3 4 3 2 2 3 4 5 5 5 5 6 6 5 4 4 4 4 4 3 3 3 3 4 2 2 3 2 2 2 2 3 2 2 3 2 3 3 3 3 4 4 3 2 4 3 4 3 3 3 3 4
0 1 1 1 2 2 2 2 2 2 3 3 3 3 4 4 4 4 6 6 4 2 2 3 3 3 4 5 4 6 7 7 7 6 5 5 3 1 1 2 3 4 5 6 6 6 6 6 6 5 4 3 4 5 4 4 3 4 4 3 3 3 2 2 2 3 2 2 3 2 3 3 3 3 3 3 3 3 3 3 2 3 3 2 2 2 3
2 2 1 1 1 1 1 1 1 2 3 3 3 3 3 4 6 5 3 2 3 4 4 4 4 4 5 5 3 2 4 4 3 2 2 0 1 1 3 3 3 3 3 4 3 2 3 4 4 6 5 4 4 5 4 5 4 4 4 3 3 3 3 2 3 2 2 2 2 2 2 2 2 2 2 3 3 3 3 3 4 3 2 2 2 2 5
2 2 2 2 1 2 2 2 1 1 2 2 2 2 3 3 3 3 4 3 3 3 4 4 4 2 1 1 2 5 6 5 5 4 3 3 2 2 3 3 3 2 3 3 1 2 1 2 5 4 4 4 4 5 5 6 6 5 4 4 3 3 3 2 3 2 2 2 2 2 2 2 2 2 3 3 3 3 3 2 3 2 2 2 2 3 4
3 2 2 1 1 1 1 1 1 2 2 2 1 2 3 3 2 3 3 3 2 3 4 4 3 2 3 3 4 4 3 5 5 4 5 4 3 4 4 3 3 3 3 1 2 3 2 2 1 2 3 3 4 3 4 6 7 4 4 4 4 3 3 3 3 3 2 1 2 2 1 2 2 2 2 3 3 3 4 4 3 3 3 3 2 3 3
2 2 2 1 2 2 1 1 1 1 2 2 3 2 1 3 2 2 2 2 3 5 4 4 4 4 5 5 4 5 3 3 3 4 4 3 3 3 5 6 7 7 6 6 5 4 3 2 2 2 2 2 3 3 4 7 7 4 5 4 4 3 3 3 3 2 2 1 2 1 1 2 2 2 2 2 2 3 3 2 3 3 3 3 4 4 4
2 3 2 1 1 1 1 2 2 2 2 2 1 2 1 2 2 2 3 3 3 4 5 5 5 5 6 6 5 3 1 1 2 3 3 3 3 2 2 3 0 1 3 4 4 4 5 5 4 4 3 2 3 4 3 6 5 4 4 4 4 4 4 3 3 2 2 1 0 1 1 1 2 2 2 2 3 2 2 2 3 3 3 3 4 4 4
3 3 3 2 1 2 2 1 1 2 1 1 1 0 2 2 2 2 1 1 2 3 4 5 7 6 2 1 2 3 3 3 3 4 5 5 3 2 2 3 0 0 3 3 3 3 4 4 5 4 3 2 2 4 3 4 3 4 4 4 4 4 4 4 3 3 2 1 1 1 1 1 2 2 1 2 2 2 2 2 2 2 3 3 3 3 3
3 3 3 2 1 1 2 2 2 3 4 3 2 2 1 1 2 1 1 1 2 3 4 4 4 5 5 4 3 4 4 3 4 4 4 6 6 5 5 4 1 2 4 2 2 2 3 3 4 4 4 4 3 6 4 2 2 3 3 4 4 4 4 4 3 3 3 2 2 1 1 1 1 1 1 0 0 1 1 1 2 2 2 3 3 3 3
2 2 1 1 2 1 1 1 2 2 3 3 2 1 1 1 1 2 2 3 3 3 3 3 4 4 4 4 3 4 4 3 3 3 3 4 4 6 8 6 4 4 7 3 3 2 3 3 4 4 6 6 6 7 4 2 3 3 3 3 4 4 4 5 4 4 4 3 3 2 2 2 0 0 1 1 0 0 0 0 1 2 2 2 3 3 2
2 2 1 1 2 1 1 1 2 3 3 3 3 2 2 2 2 2 3 3 3 3 3 3 3 3 3 3 4 5 3 2 2 2 3 3 4 3 3 5 4 4 5 6 4 3 3 3 5 6 6 7 8 8 4 3 3 3 3 3 3 4 5 5 6 5 5 4 4 3 2 2 2 2 2 1 1 0 1 1 2 2 2 2 2 2 2
2 1 1 1 2 2 2 2 2 2 2 3 3 4 3 2 2 1 2 2 3 3 4 4 4 4 4 3 3 3 3 3 4 5 5 5 5 2 2 3 3 3 5 7 4 4 3 4 5 7 8 8 8 6 4 4 3 3 3 3 4 4 4 5 5 5 5 5 5 4 4 3 2 2 2 2 2 1 1 1 2 2 2 2 3 3 3
2 2 1 1 2 2 2 2 1 1 1 1 2 2 2 2 2 2 1 1 2 3 2 3 3 3 3 3 3 3 3 3 3 5 6 5 5 5 3 2 2 2 4 4 4 4 3 4 6 7 7 8 9 5 4 4 4 4 4 3 4 4 4 5 6 6 5 5 5 5 4 3 3 2 3 3 3 2 2 2 2 2 2 3 3 3 3
1 2 2 2 3 3 2 1 1 1 2 3 3 2 1 2 2 2 1 2 2 2 2 2 2 3 3 4 4 4 3 3 3 2 2 2 2 2 3 4 4 5 5 4 5 5 4 5 6 7 8 8 6 5 5 4 4 4 4 4 4 4 4 4 5 6 6 5 5 5 4 5 4 4 3 2 2 2 2 2 2 2 1 1 2 2 1
1 1 2 2 2 2 2 2 2 2 2 2 2 2 1 2 2 2 2 1 1 2 2 3 3 4 3 3 3 3 3 4 4 2 1 1 0 1 1 3 4 6 5 5 5 3 6 7 7 7 7 7 5 4 4 4 4 4 4 3 3 2 3 3 4 5 5 6 6 6 6 6 6 5 4 4 3 3 4 3 3 3 2 2 1 2 2
0 0 1 1 2 2 2 2 2 2 2 1 2 2 1 2 2 1 1 1 1 1 2 3 3 3 2 2 2 2 2 3 4 5 4 4 3 3 3 3 2 5 5 4 3 3 4 6 6 6 6 5 5 4 4 4 4 4 3 3 3 2 4 4 4 4 5 5 5 6 5 6 6 6 6 4 4 4 4 3 3 4 7 3 3 2 2
0 1 1 1 2 2 2 2 3 3 2 2 2 2 1 2 3 3 2 1 1 2 2 2 2 2 1 1 1 1 2 2 3 4 3 3 2 3 3 2 2 3 3 4 3 3 1 3 3 5 5 5 4 4 3 3 3 3 3 2 3 3 3 4 4 5 5 5 5 5 6 5 6 6 5 4 4 4 5 4 4 4 5 3 3 4 4
0 0 1 1 1 1 1 0 0 1 1 2 2 1 2 2 3 3 2 3 2 1 1 2 2 1 1 1 2 2 1 1 1 1 2 2 2 1 2 2 2 2 3 3 2 2 1 2 4 5 4 3 2 2 3 2 3 2 2 3 3 3 4 4 4 3 3 5 5 4 5 5 4 4 4 4 4 6 5 5 5 5 5 5 4 4 4
Wind_Direction
72 70 81 92 89 75 75 57 34 23 13 28 58 35 351 329 256 271 154 156 124 72 49 40 36 49 70 71 71 75 82 83 80 73 65 57 49 48 51 48 40 42 38 35 41 40 35 55 63 57 48 62 78 78 76 78 74 76 79 78 79 91 119 110 104 114 103 101 100 103 105 106 105 103 100 93 88 89 98 113 119 93 58 143 149 142 127
55 38 75 113 107 107 64 47 42 34 44 58 63 58 32 38 65 106 129 98 83 54 47 41 47 56 70 75 76 72 65 63 69 71 71 66 60 57 57 57 52 47 44 41 42 47 47 49 53 55 60 46 39 50 55 67 72 76 83 86 96 103 109 112 112 93 89 83 96 98 93 90 86 82 80 84 98 100 83 91 87 72 102 97 121 131 143
51 24 52 105 122 113 76 48 37 29 38 57 45 50 22 46 79 87 103 101 82 48 61 71 75 71 72 65 60 61 59 62 66 70 65 65 64 61 59 56 51 50 47 46 46 43 43 46 46 59 62 64 62 60 58 57 55 52 65 75 79 91 94 95 89 88 88 87 86 86 89 82 75 69 53 58 39 68 93 62 85 94 89 132 114 98 97
110 17 11 58 107 101 88 43 22 13 13 31 11 25 350 8 107 130 118 103 106 102 94 76 74 72 65 64 60 60 57 58 63 63 62 60 59 64 61 57 51 48 45 44 47 43 39 38 36 40 59 60 55 57 58 63 64 66 62 53 55 50 66 88 88 79 71 76 70 65 72 87 86 92 97 81 58 51 69 80 87 88 73 78 80 88 108
170 7 324 349 290 129 195 29 351 342 357 346 247 31 27 25 314 146 162 69 105 129 117 93 68 75 78 71 60 63 65 65 63 64 63 61 59 60 62 62 57 51 46 45 46 47 47 41 37 32 41 63 59 52 60 52 59 64 68 66 65 58 43 51 61 63 59 65 68 71 81 92 97 89 83 78 72 64 54 57 68 69 61 58 53 52 63
125 33 336 279 176 206 101 4 329 348 16 353 46 39 8 9 15 95 100 126 120 111 107 104 98 78 71 75 70 60 59 73 72 66 61 60 63 60 62 61 58 52 43 38 46 53 56 50 50 47 41 57 60 54 56 56 66 68 73 65 63 57 52 45 48 62 66 71 68 61 58 61 63 61 59 62 63 61 92 76 64 63 52 54 58 52 51
110 96 132 171 222 64 165 151 23 348 358 36 69 64 36 61 94 105 103 107 106 103 97 96 94 94 77 64 61 58 58 62 69 71 64 59 55 53 58 62 59 52 41 29 44 49 51 51 48 55 54 46 57 58 50 60 61 72 71 72 66 62 60 53 44 47 65 72 71 65 60 63 63 61 58 53 53 39 39 50 55 59 50 46 43 43 43
105 133 121 199 73 71 145 139 38 351 226 346 284 92 50 47 72 107 108 114 117 117 114 109 105 99 90 72 55 50 54 57 60 65 62 58 53 52 48 65 63 61 53 43 40 45 26 47 55 56 50 30 58 58 49 53 57 60 69 69 66 66 64 57 53 45 49 65 76 70 65 68 68 67 64 55 50 41 60 62 58 62 59 49 46 48 43
133 99 86 83 126 149 81 20 13 19 355 340 353 13 14 26 129 129 127 128 127 124 123 126 125 132 96 71 51 41 59 63 60 66 69 69 66 60 54 66 70 60 53 53 46 48 38 36 53 53 48 49 62 60 53 41 48 50 55 57 53 58 60 56 55 46 35 44 59 66 69 68 66 63 64 60 43 10 64 68 63 60 60 54 47 50 50
326 134 122 133 180 190 57 35 5 72 305 299 265 254 18 74 92 142 137 139 142 135 139 148 155 169 80 67 61 46 55 63 70 66 62 60 61 57 60 63 66 62 61 56 51 52 50 47 45 44 45 50 58 62 57 48 48 49 52 50 48 54 56 53 52 49 43 46 53 53 59 67 69 68 68 66 70 35 41 60 59 51 54 57 49 47 50
138 88 120 105 120 74 31 333 331 320 305 283 229 245 58 109 139 147 146 139 147 148 155 164 206 282 88 113 119 120 88 78 73 71 63 61 55 52 48 55 64 63 59 60 58 54 51 46 39 44 41 50 60 63 60 57 53 51 46 46 44 46 49 49 46 45 49 52 54 53 54 49 50 55 50 55 51 40 57 76 78 69 61 78 71 59 50
43 114 91 104 43 36 357 328 318 316 307 240 202 232 65 129 152 153 152 150 153 165 161 177 285 139 135 154 148 135 114 105 104 97 92 77 67 57 55 55 62 63 57 59 53 50 48 38 37 55 53 59 60 60 57 61 61 54 46 45 47 48 46 46 47 46 48 51 51 53 54 52 50 50 48 46 39 48 42 43 61 63 58 62 77 69 53
63 75 96 95 102 80 352 325 314 312 292 226 244 70 33 26 167 158 161 156 160 166 171 251 107 41 79 112 130 135 124 112 103 98 93 88 85 83 68 57 55 57 55 56 52 50 50 43 34 49 72 76 69 63 61 63 59 55 51 50 48 46 44 44 43 40 41 47 54 56 55 57 55 52 45 46 44 49 45 44 52 53 44 40 53 53 45
37 6 73 90 92 74 323 320 317 294 230 249 39 8 322 264 187 163 165 158 164 166 61 119 114 108 104 117 125 129 124 114 112 103 101 96 83 74 77 78 71 63 56 56 55 48 35 41 43 41 67 71 71 71 69 63 56 57 57 53 51 52 53 53 50 48 47 44 44 47 47 52 56 52 40 38 38 40 42 46 52 54 44 47 50 58 62
156 6 76 60 53 52 13 326 302 18 8 12 314 316 341 166 138 132 146 146 119 102 101 113 115 115 123 126 127 124 121 114 110 110 109 107 103 97 86 72 67 77 69 60 56 55 46 39 38 46 61 71 69 69 70 63 49 51 53 54 56 57 57 58 57 56 52 46 41 40 43 42 49 53 48 53 53 54 55 61 69 68 60 52 57 59 58
64 49 44 58 352 311 345 3 25 339 312 300 296 300 14 47 83 143 118 82 109 114 117 118 113 123 125 120 122 117 107 106 103 101 101 97 94 90 85 86 82 75 77 69 66 56 50 46 42 34 63 78 73 75 73 67 66 62 57 56 56 59 59 56 56 55 54 52 48 47 44 46 54 53 46 41 45 39 33 33 33 41 41 36 38 45 43
51 67 88 26 352 345 356 351 326 304 328 327 301 65 38 56 27 28 82 83 82 98 111 107 110 115 110 123 129 126 128 129 128 121 117 108 106 104 100 93 85 79 85 81 77 67 52 50 47 57 62 83 87 85 84 85 78 75 69 62 62 64 65 62 58 60 57 54 52 50 47 45 47 45 44 35 42 35 29 31 27 26 25 18 18 13 9
96 83 64 58 31 12 12 36 20 21 30 23 34 58 69 56 57 50 83 82 85 76 61 94 75 91 109 111 119 123 125 122 110 108 101 90 93 99 101 98 90 90 88 83 80 81 70 60 56 45 42 57 80 81 78 75 77 80 80 78 76 74 68 62 55 59 64 60 55 50 47 46 45 42 35 34 31 30 27 30 28 23 19 15 9 4 353
237 72 28 33 25 21 42 58 56 56 58 60 54 69 73 75 73 71 65 77 82 81 77 79 95 94 105 117 124 128 130 130 128 124 120 118 119 116 108 108 112 105 104 100 98 93 85 61 70 73 72 58 66 68 68 71 86 93 92 92 92 87 82 79 71 65 64 57 59 52 42 42 43 39 34 30 34 29 27 23 22 20 11 3 357 358 351
55 89 43 48 60 72 61 56 65 72 74 76 74 77 73 76 77 80 80 84 83 80 79 77 84 83 100 123 129 127 124 124 125 124 125 124 118 110 114 122 118 113 108 108 106 101 97 86 72 69 62 61 57 68 73 76 86 86 81 77 84 78 73 75 71 66 67 37 30 51 41 42 44 44 41 37 43 41 32 29 11 14 356 358 358 352 340
91 97 87 111 95 73 67 68 74 86 100 101 98 94 89 86 85 80 75 73 79 78 80 76 77 73 49 88 123 123 121 123 126 130 132 132 129 128 128 124 117 110 112 107 107 107 104 97 90 77 66 54 44 48 54 73 92 91 91 91 82 74 68 74 72 67 60 53 48 44 48 50 58 53 38 46 51 54 50 27 13 359 3 344 350 344 332
88 80 138 190 107 101 84 61 56 76 91 111 114 116 112 109 101 94 88 72 54 52 55 79 93 92 89 71 110 122 127 132 133 134 132 131 129 116 109 110 110 110 113 123 121 117 112 99 85 81 72 65 57 55 71 93 115 105 104 102 95 82 79 77 69 56 49 58 56 61 50 44 57 88 132 131 6 36 49 35 356 286 265 336 352 343 326
97 87 98 286 84 98 88 100 26 49 10 112 120 122 125 127 127 128 120 118 105 80 46 24 114 129 126 114 88 100 119 121 115 131 138 136 128 120 118 114 109 105 103 111 124 122 127 134 120 113 95 68 63 58 69 77 90 92 88 84 77 72 70 66 40 28 34 31 29 29 28 20 28 26 37 95 90 20 349 347 345 344 343 325 325 322 328
65 91 144 162 127 124 138 159 81 65 41 109 101 103 120 134 140 137 136 143 142 131 115 75 10 124 119 130 135 120 112 135 149 147 113 103 113 120 132 131 129 122 114 109 111 109 96 106 99 91 78 62 43 35 27 38 32 49 46 47 50 51 55 53 42 28 32 32 24 26 24 19 16 11 21 23 67 117 83 355 342 344 339 337 331 326 318
96 158 154 160 101 98 89 86 70 74 69 82 105 111 122 129 126 133 128 118 138 141 138 131 97 52 125 142 169 142 152 151 129 115 132 123 120 136 142 143 147 143 138 121 105 89 127 144 115 85 77 55 36 26 27 31 34 53 51 52 54 57 57 48 44 34 34 40 33 28 23 19 18 18 22 28 27 15 67 149 219 293 342 353 358 353 344
100 115 106 94 88 91 123 124 78 68 78 84 103 100 84 86 112 132 129 136 140 139 131 135 136 99 14 89 77 69 91 85 66 79 144 142 137 139 157 158 149 128 133 132 126 146 157 168 154 142 128 128 137 110 105 106 107 102 95 84 72 62 61 49 43 49 51 45 38 35 26 18 16 19 32 29 22 11 359 7 64 186 174 101 36 359 13
94 84 125 107 95 99 327 23 126 144 69 64 85 90 74 80 79 89 88 89 99 107 103 104 100 104 89 66 79 35 78 112 111 105 117 128 135 144 136 127 140 143 145 132 122 104 155 164 162 156 145 143 154 182 181 168 161 144 134 124 108 89 342 333 55 60 58 50 36 32 25 18 24 28 35 21 10 10 12 10 6 12 21 64 90 52 357
61 21 346 63 157 143 112 84 103 97 65 64 94 99 100 106 113 115 113 113 109 90 77 89 129 141 131 135 131 107 98 103 92 114 132 137 129 128 137 146 152 160 158 155 131 141 166 171 167 165 153 153 175 189 196 177 165 147 143 131 101 78 111 130 55 69 61 54 32 22 14 24 23 28 18 20 16 22 17 9 2 11 28 25 356 56 232
4 2 18 6 60 103 113 127 112 106 91 67 71 95 123 124 109 118 118 115 122 127 129 147 211 256 132 146 158 123 110 102 121 141 136 130 128 124 121 132 140 185 197 156 140 150 156 171 175 171 163 165 185 204 204 176 170 136 137 138 85 86 75 63 54 74 82 60 43 14 334 331 5 26 26 29 18 21 27 23 17 15 22 13 7 19 344
2 6 61 79 91 132 131 109 98 77 99 103 121 108 100 137 146 145 134 133 157 158 154 160 182 142 140 143 165 151 159 161 136 89 71 109 95 99 107 123 166 161 137 123 130 6 206 180 183 184 170 175 188 186 190 176 136 127 132 136 103 72 88 72 115 119 110 81 63 248 298 355 22 19 22 27 27 34 35 31 25 29 28 34 27 16 3
69 53 65 75 87 71 76 98 99 97 113 123 145 144 135 150 157 168 170 151 162 173 181 194 152 125 178 168 142 101 62 68 93 131 218 238 87 61 20 228 221 237 256 117 194 213 267 291 265 200 160 180 184 187 186 181 151 137 147 142 129 119 136 180 127 69 103 102 84 27 24 4 30 21 20 20 26 31 28 28 35 38 35 33 30 23 6
112 92 89 69 71 121 123 153 154 147 154 159 164 192 185 182 197 204 188 190 189 182 181 188 201 206 178 153 144 146 136 92 127 172 171 172 257 77 43 309 292 267 265 217 207 242 263 259 257 247 289 259 230 194 188 178 163 139 105 128 85 122 111 231 162 128 105 110 97 55 20 14 24 21 32 27 28 26 23 30 33 37 38 38 34 24 6
110 65 63 126 144 169 181 189 196 190 182 197 215 205 194 228 245 233 201 180 168 193 204 212 211 180 160 149 132 132 139 138 91 92 212 224 234 226 202 256 278 284 284 263 249 251 256 259 258 265 282 280 269 234 192 181 177 141 132 108 89 95 102 97 14 136 123 106 75 37 22 26 21 28 41 33 29 25 33 33 35 43 48 46 44 35 26
259 320 319 292 279 305 292 187 205 227 226 234 210 190 200 212 219 214 180 182 199 196 212 214 197 156 137 133 138 133 141 156 219 215 224 246 256 239 215 227 238 248 261 266 257 245 236 246 257 263 271 272 266 265 212 187 176 147 137 137 101 93 95 109 176 82 81 86 84 89 35 41 32 33 45 47 37 37 35 32 36 36 56 53 51 50 33
256 270 284 285 268 250 226 210 201 193 204 208 201 206 216 213 206 212 185 189 197 209 201 146 137 131 130 130 143 162 178 212 244 233 216 221 244 258 266 236 236 241 251 249 241 244 244 250 250 251 255 260 258 252 220 191 176 152 139 131 108 93 99 100 84 68 66 76 47 38 46 45 47 49 54 50 50 43 45 40 33 40 48 50 48 46 43
160 98 109 233 227 235 252 233 220 187 173 200 201 198 203 210 197 192 197 212 211 181 150 144 138 140 147 163 183 194 212 232 241 241 242 243 237 237 237 224 223 236 247 261 246 241 241 241 230 229 249 245 243 241 224 188 171 156 145 142 129 116 108 103 100 97 77 52 60 59 63 71 71 56 46 66 68 60 57 48 43 47 50 47 38 26 32
28 47 66 41 31 216 231 274 199 167 152 166 163 175 198 204 212 220 220 203 185 187 170 153 163 186 216 215 224 234 241 242 238 224 217 127 131 182 215 188 210 230 242 261 255 203 228 232 213 190 219 226 224 231 202 186 174 155 151 155 138 129 125 123 107 90 81 68 73 77 71 86 65 63 60 63 63 59 51 55 54 49 52 46 33 34 47
36 39 54 55 1 323 48 48 127 170 123 126 158 194 200 208 209 213 219 215 203 181 174 185 197 198 168 161 195 233 247 240 235 228 206 198 197 195 221 218 234 214 233 243 175 184 207 140 164 194 209 215 213 223 190 200 167 159 160 159 146 136 131 128 120 106 90 74 70 78 73 57 50 66 63 63 65 61 60 63 54 50 55 47 42 40 48
48 69 103 125 204 91 27 20 337 290 279 285 245 187 201 201 201 194 204 198 183 169 182 191 172 194 217 232 244 231 223 219 210 212 207 195 195 206 236 236 248 240 252 93 174 217 176 181 205 211 212 222 219 224 174 183 185 171 157 158 156 146 143 144 126 114 100 70 65 70 71 61 58 64 67 60 60 74 70 52 51 53 54 47 44 45 45
335 352 5 3 14 2 358 25 330 291 282 287 290 303 185 174 181 192 192 189 182 181 190 177 186 217 220 228 242 255 235 207 199 190 199 183 180 230 266 259 240 241 235 218 224 228 185 152 246 242 236 227 221 201 186 180 184 170 162 167 163 158 152 151 151 140 131 132 110 141 98 89 73 67 72 83 79 64 61 71 64 57 60 55 51 50 47
314 325 332 333 342 290 289 302 314 344 330 314 252 247 215 235 161 165 207 207 172 181 193 195 208 225 229 231 241 269 300 230 207 211 175 169 198 222 258 290 65 155 195 201 210 210 199 214 233 234 235 224 218 203 178 173 189 169 173 172 173 167 162 173 167 161 147 148 109 91 102 119 124 113 86 80 76 72 76 67 60 53 52 55 58 56 56
333 315 300 309 347 317 303 283 312 312 332 353 344 293 210 203 213 254 263 156 163 179 193 205 218 232 256 276 276 269 257 234 222 215 201 225 243 257 261 276 165 127 131 175 180 196 197 201 215 225 236 216 202 190 218 171 183 166 180 179 182 178 178 172 175 168 154 148 130 117 114 101 95 85 76 69 78 75 70 71 71 67 62 57 49 50 52
332 326 323 324 347 339 317 308 292 304 315 315 309 336 356 215 228 259 235 198 198 187 200 208 202 222 236 232 237 251 246 213 217 223 232 241 238 241 249 279 135 134 156 184 174 205 197 203 199 208 195 200 182 152 205 215 183 186 190 185 186 186 183 183 181 171 171 169 164 158 146 120 117 106 105 92 84 84 71 75 80 80 74 72 67 56 56
310 288 295 314 331 336 302 269 272 265 274 289 309 298 283 254 215 224 222 223 220 225 222 212 206 214 214 217 225 248 250 221 211 211 238 261 232 217 224 239 250 184 174 220 221 219 199 208 220 185 179 190 164 168 196 204 208 203 196 192 191 191 186 184 185 183 181 179 176 183 167 160 152 135 154 146 141 127 150 129 101 109 108 105 90 87 75
312 317 332 333 322 305 309 303 293 297 299 303 293 275 245 235 211 210 219 220 231 225 219 234 233 225 212 203 221 240 270 277 244 187 223 246 273 275 156 203 219 228 195 204 226 223 219 208 195 187 192 186 178 177 197 199 209 211 202 200 198 197 193 192 188 190 185 182 184 185 186 191 181 169 163 133 139 171 179 167 136 128 132 126 123 111 100
282 257 276 309 316 329 327 297 286 276 277 287 293 284 266 262 261 232 221 240 244 239 232 220 220 223 224 224 240 254 264 255 238 228 243 259 266 303 118 188 190 206 181 183 208 208 223 203 199 199 193 183 172 180 200 197 209 210 210 212 207 203 199 195 187 190 187 186 183 188 189 190 187 186 170 169 164 176 146 161 160 158 150 140 116 105 107
289 299 274 302 313 316 323 308 269 222 216 249 257 276 323 310 283 274 251 231 244 252 240 232 233 241 235 235 245 263 273 266 240 208 229 241 254 264 234 224 274 203 179 202 213 207 202 186 195 199 194 183 178 193 193 199 203 217 214 217 211 211 202 192 189 189 188 189 183 184 184 187 189 178 159 155 155 176 163 184 193 158 151 132 121 118 124
262 285 323 349 329 330 321 299 279 271 257 259 280 292 286 292 287 281 257 231 227 239 245 239 235 233 230 233 234 240 259 277 289 284 150 218 219 226 232 228 221 203 217 246 247 247 214 205 192 188 187 176 186 205 197 203 205 211 216 215 215 211 202 193 189 189 189 178 170 185 188 191 190 190 187 188 176 173 180 181 172 161 150 149 153 139 126
241 291 314 311 306 310 324 325 313 306 310 324 288 288 298 272 264 254 242 230 246 256 260 263 265 268 250 237 239 236 212 218 229 278 75 122 287 256 250 228 216 210 220 238 234 233 189 195 191 191 180 182 202 198 199 200 205 213 220 224 220 213 205 198 192 187 187 182 183 187 189 189 189 190 190 192 189 184 178 186 194 210 215 201 174 149 158
34 293 321 358 347 339 334 321 311 313 322 303 291 304 305 292 276 254 157 236 258 278 270 268 272 267 264 259 223 228 209 219 233 259 279 277 270 260 250 245 231 200 211 233 225 231 154 177 181 175 178 199 207 202 198 201 202 210 221 217 218 218 203 195 183 184 193 188 187 186 189 191 191 187 191 194 195 192 194 202 215 162 133 188 208 189 189
120 30 4 334 304 297 271 270 306 322 318 315 303 291 270 256 271 286 288 269 252 260 290 292 271 261 279 257 277 248 224 218 227 236 252 263 259 259 266 271 241 214 199 207 220 220 187 185 184 172 185 203 201 201 200 199 209 208 211 219 202 201 176 181 191 190 198 198 194 193 192 191 185 180 191 199 192 198 199 196 195 186 187 199 198 211 208
34 9 327 314 300 301 302 296 330 321 318 322 323 301 273 268 277 276 244 207 236 259 284 309 315 80 85 342 314 307 329 300 268 213 227 238 233 233 153 179 234 200 209 206 200 200 202 171 168 185 192 191 199 201 185 185 217 221 210 204 201 198 187 184 185 192 190 194 201 199 195 196 188 186 191 194 194 198 199 200 202 200 202 214 209 200 205